Time,TemperatureF,DewpointF,PressureIn,WindDirection,WindDirectionDegrees,WindSpeedMPH,WindSpeedGustMPH,Humidity,HourlyPrecipIn,Conditions,Clouds,dailyrainin,SoftwareType,DateUTC
2013-07-02 00:00:00,67.0,67.0,30.17,North,360,1.0,6.0,100,0.00,,,0.00,Rainwise IP-100,2013-07-02 04:00:00,
2013-07-02 00:01:00,67.0,67.0,30.17,NE,45,0.0,7.0,100,0.00,,,0.00,Rainwise IP-100,2013-07-02 04:01:00,
2013-07-02 00:06:00,66.9,67.0,30.17,East,90,1.0,5.0,100,0.00,,,0.00,Rainwise IP-100,2013-07-02 04:06:00,
2013-07-02 00:11:00,66.7,66.0,30.17,NE,45,0.0,3.0,100,0.00,,,0.00,Rainwise IP-100,2013-07-02 04:11:00,
2013-07-02 00:16:00,66.7,66.0,30.17,ENE,67,2.0,6.0,100,0.00,,,0.00,Rainwise IP-100,2013-07-02 04:16:00,
2013-07-02 00:21:00,66.6,66.0,30.16,South,180,0.0,7.0,100,0.00,,,0.00,Rainwise IP-100,2013-07-02 04:21:00,
2013-07-02 00:26:00,66.4,66.0,30.16,ESE,112,1.0,1.0,100,0.00,,,0.00,Rainwise IP-100,2013-07-02 04:26:00,
2013-07-02 00:31:00,66.1,66.0,30.16,SSE,157,0.0,1.0,100,0.00,,,0.00,Rainwise IP-100,2013-07-02 04:31:00,
2013-07-02 00:36:00,65.9,66.0,30.16,ESE,112,2.0,4.0,100,0.00,,,0.00,Rainwise IP-100,2013-07-02 04:36:00,
2013-07-02 00:41:00,65.7,65.0,30.16,SW,225,1.0,4.0,100,0.00,,,0.00,Rainwise IP-100,2013-07-02 04:41:00,
2013-07-02 00:46:00,65.6,65.0,30.16,NE,45,1.0,5.0,100,0.00,,,0.00,Rainwise IP-100,2013-07-02 04:46:00,
2013-07-02 00:50:00,65.5,65.0,30.16,ENE,67,1.0,6.0,100,0.00,,,0.00,Rainwise IP-100,2013-07-02 04:50:00,
2013-07-02 00:55:00,65.4,65.0,30.17,North,360,2.0,7.0,100,0.00,,,0.00,Rainwise IP-100,2013-07-02 04:55:00,
2013-07-02 01:00:00,65.4,65.0,30.16,SSE,157,1.0,6.0,100,0.00,,,0.00,Rainwise IP-100,2013-07-02 05:00:00,
2013-07-02 01:05:00,65.4,65.0,30.17,East,90,0.0,5.0,100,0.00,,,0.00,Rainwise IP-100,2013-07-02 05:05:00,
2013-07-02 01:10:00,65.4,65.0,30.17,NE,45,4.0,6.0,100,0.00,,,0.00,Rainwise IP-100,2013-07-02 05:10:00,
2013-07-02 01:15:00,65.4,65.0,30.17,ESE,112,0.0,6.0,100,0.06,,,0.01,Rainwise IP-100,2013-07-02 05:15:00,
2013-07-02 01:20:00,65.3,65.0,30.17,ESE,112,2.0,3.0,100,0.06,,,0.01,Rainwise IP-100,2013-07-02 05:20:00,
2013-07-02 01:25:00,65.3,65.0,30.17,East,90,0.0,4.0,100,0.00,,,0.01,Rainwise IP-100,2013-07-02 05:25:00,
2013-07-02 01:30:00,65.3,65.0,30.17,ESE,112,2.0,6.0,100,0.00,,,0.01,Rainwise IP-100,2013-07-02 05:30:00,
2013-07-02 01:35:00,65.3,65.0,30.17,ESE,112,0.0,4.0,100,0.00,,,0.01,Rainwise IP-100,2013-07-02 05:35:00,
2013-07-02 01:40:00,65.2,65.0,30.16,ESE,112,0.0,4.0,100,0.00,,,0.01,Rainwise IP-100,2013-07-02 05:40:00,
2013-07-02 01:45:00,65.2,65.0,30.17,SE,135,1.0,3.0,100,0.00,,,0.01,Rainwise IP-100,2013-07-02 05:45:00,
2013-07-02 01:50:00,65.1,65.0,30.17,North,360,2.0,8.0,100,0.00,,,0.01,Rainwise IP-100,2013-07-02 05:50:00,
2013-07-02 01:55:00,65.1,65.0,30.17,East,90,2.0,6.0,100,0.00,,,0.01,Rainwise IP-100,2013-07-02 05:55:00,
2013-07-02 02:00:00,65.0,65.0,30.17,NNW,337,3.0,4.0,100,0.00,,,0.01,Rainwise IP-100,2013-07-02 06:00:00,
2013-07-02 02:05:00,64.9,65.0,30.17,ENE,67,0.0,5.0,100,0.00,,,0.01,Rainwise IP-100,2013-07-02 06:05:00,
2013-07-02 02:10:00,64.8,64.0,30.17,WSW,247,0.0,8.0,100,0.00,,,0.01,Rainwise IP-100,2013-07-02 06:10:00,
2013-07-02 02:15:00,64.6,64.0,30.17,East,90,2.0,8.0,100,0.00,,,0.01,Rainwise IP-100,2013-07-02 06:15:00,
2013-07-02 02:20:00,64.3,64.0,30.17,ESE,112,3.0,6.0,100,0.00,,,0.01,Rainwise IP-100,2013-07-02 06:20:00,
2013-07-02 02:25:00,64.1,64.0,30.17,ENE,67,3.0,7.0,100,0.00,,,0.01,Rainwise IP-100,2013-07-02 06:25:00,
2013-07-02 02:30:00,63.8,63.0,30.17,WNW,292,3.0,7.0,100,0.00,,,0.01,Rainwise IP-100,2013-07-02 06:30:00,
2013-07-02 02:35:00,63.6,63.0,30.17,SSE,157,4.0,7.0,100,0.00,,,0.01,Rainwise IP-100,2013-07-02 06:35:00,
2013-07-02 02:40:00,63.4,63.0,30.17,NNW,337,1.0,5.0,100,0.06,,,0.02,Rainwise IP-100,2013-07-02 06:40:00,
2013-07-02 02:45:00,63.3,63.0,30.17,NNW,337,2.0,5.0,100,0.06,,,0.02,Rainwise IP-100,2013-07-02 06:45:00,
2013-07-02 02:50:00,63.2,63.0,30.18,ENE,67,0.0,6.0,100,0.00,,,0.02,Rainwise IP-100,2013-07-02 06:50:00,
2013-07-02 02:55:00,63.1,63.0,30.18,ENE,67,3.0,5.0,100,0.06,,,0.03,Rainwise IP-100,2013-07-02 06:55:00,
2013-07-02 03:00:00,63.0,63.0,30.18,ESE,112,2.0,7.0,100,0.06,,,0.03,Rainwise IP-100,2013-07-02 07:00:00,
2013-07-02 03:05:00,63.0,63.0,30.18,NNW,337,0.0,7.0,100,0.06,,,0.04,Rainwise IP-100,2013-07-02 07:05:00,
2013-07-02 03:10:00,62.9,63.0,30.18,ESE,112,0.0,5.0,100,0.06,,,0.04,Rainwise IP-100,2013-07-02 07:10:00,
2013-07-02 03:15:00,62.8,62.0,30.18,NE,45,2.0,6.0,100,0.00,,,0.04,Rainwise IP-100,2013-07-02 07:15:00,
2013-07-02 03:20:00,62.7,62.0,30.18,ENE,67,3.0,6.0,100,0.06,,,0.05,Rainwise IP-100,2013-07-02 07:20:00,
2013-07-02 03:25:00,62.6,62.0,30.18,ESE,112,1.0,5.0,100,0.12,,,0.06,Rainwise IP-100,2013-07-02 07:25:00,
2013-07-02 03:30:00,62.6,62.0,30.18,ENE,67,2.0,6.0,100,0.18,,,0.08,Rainwise IP-100,2013-07-02 07:30:00,
2013-07-02 03:35:00,62.6,62.0,30.19,ENE,67,5.0,5.0,100,0.12,,,0.08,Rainwise IP-100,2013-07-02 07:35:00,
2013-07-02 03:40:00,62.6,62.0,30.19,SSW,202,0.0,5.0,100,0.12,,,0.10,Rainwise IP-100,2013-07-02 07:40:00,
2013-07-02 03:45:00,62.5,62.0,30.19,NNE,22,5.0,7.0,100,0.12,,,0.10,Rainwise IP-100,2013-07-02 07:45:00,
2013-07-02 03:50:00,62.5,62.0,30.20,ESE,112,1.0,7.0,100,0.24,,,0.14,Rainwise IP-100,2013-07-02 07:50:00,
2013-07-02 03:55:00,62.5,62.0,30.19,ESE,112,0.0,4.0,100,0.36,,,0.16,Rainwise IP-100,2013-07-02 07:55:00,
2013-07-02 04:00:00,62.5,62.0,30.19,ESE,112,2.0,4.0,100,0.18,,,0.17,Rainwise IP-100,2013-07-02 08:00:00,
2013-07-02 04:05:00,62.5,62.0,30.20,ESE,112,2.0,4.0,100,0.12,,,0.18,Rainwise IP-100,2013-07-02 08:05:00,
2013-07-02 04:10:00,62.5,62.0,30.20,ESE,112,1.0,3.0,100,0.12,,,0.19,Rainwise IP-100,2013-07-02 08:10:00,
2013-07-02 04:15:00,62.5,62.0,30.20,ENE,67,2.0,5.0,100,0.12,,,0.20,Rainwise IP-100,2013-07-02 08:15:00,
2013-07-02 04:20:00,62.6,62.0,30.20,ESE,112,0.0,6.0,100,0.12,,,0.21,Rainwise IP-100,2013-07-02 08:20:00,
2013-07-02 04:25:00,62.6,62.0,30.20,ESE,112,2.0,7.0,100,0.12,,,0.22,Rainwise IP-100,2013-07-02 08:25:00,
2013-07-02 04:30:00,62.6,62.0,30.20,NNE,22,4.0,4.0,100,0.06,,,0.22,Rainwise IP-100,2013-07-02 08:30:00,
2013-07-02 04:35:00,62.6,62.0,30.20,SSE,157,0.0,7.0,100,0.00,,,0.22,Rainwise IP-100,2013-07-02 08:35:00,
2013-07-02 04:40:00,62.5,62.0,30.21,SSE,157,0.0,4.0,100,0.00,,,0.22,Rainwise IP-100,2013-07-02 08:40:00,
2013-07-02 04:45:00,62.5,62.0,30.20,ESE,112,3.0,7.0,100,0.00,,,0.22,Rainwise IP-100,2013-07-02 08:45:00,
2013-07-02 04:50:00,62.4,62.0,30.20,East,90,4.0,5.0,100,0.00,,,0.22,Rainwise IP-100,2013-07-02 08:50:00,
2013-07-02 04:55:00,62.3,62.0,30.21,ENE,67,9.0,9.0,100,0.00,,,0.22,Rainwise IP-100,2013-07-02 08:55:00,
2013-07-02 05:00:00,62.2,62.0,30.21,ENE,67,3.0,8.0,100,0.00,,,0.22,Rainwise IP-100,2013-07-02 09:00:00,
2013-07-02 05:05:00,62.1,62.0,30.21,SSE,157,1.0,9.0,100,0.00,,,0.22,Rainwise IP-100,2013-07-02 09:05:00,
2013-07-02 05:10:00,61.9,62.0,30.21,ESE,112,3.0,8.0,100,0.00,,,0.22,Rainwise IP-100,2013-07-02 09:10:00,
2013-07-02 05:15:00,61.7,61.0,30.21,SSE,157,2.0,7.0,100,0.00,,,0.22,Rainwise IP-100,2013-07-02 09:15:00,
2013-07-02 05:20:00,61.5,61.0,30.21,ESE,112,1.0,8.0,100,0.00,,,0.22,Rainwise IP-100,2013-07-02 09:20:00,
2013-07-02 05:25:00,61.3,61.0,30.21,SE,135,3.0,8.0,100,0.00,,,0.22,Rainwise IP-100,2013-07-02 09:25:00,
2013-07-02 05:30:00,61.1,61.0,30.22,SSE,157,1.0,9.0,100,0.00,,,0.22,Rainwise IP-100,2013-07-02 09:30:00,
2013-07-02 05:35:00,60.8,60.0,30.22,North,360,5.0,5.0,100,0.00,,,0.22,Rainwise IP-100,2013-07-02 09:35:00,
2013-07-02 05:40:00,60.6,60.0,30.22,ESE,112,3.0,7.0,100,0.00,,,0.22,Rainwise IP-100,2013-07-02 09:40:00,
2013-07-02 05:45:00,60.3,60.0,30.22,ESE,112,5.0,8.0,100,0.00,,,0.22,Rainwise IP-100,2013-07-02 09:45:00,
2013-07-02 05:50:00,60.2,60.0,30.22,ESE,112,3.0,7.0,100,0.00,,,0.22,Rainwise IP-100,2013-07-02 09:50:00,
2013-07-02 05:55:00,60.0,60.0,30.22,ESE,112,4.0,9.0,100,0.00,,,0.22,Rainwise IP-100,2013-07-02 09:55:00,
2013-07-02 06:00:00,60.0,60.0,30.22,SSE,157,2.0,9.0,100,0.06,,,0.23,Rainwise IP-100,2013-07-02 10:00:00,
2013-07-02 06:05:00,59.9,60.0,30.22,ESE,112,3.0,8.0,100,0.06,,,0.23,Rainwise IP-100,2013-07-02 10:05:00,
2013-07-02 06:10:00,59.9,60.0,30.23,NNE,22,3.0,8.0,100,0.00,,,0.23,Rainwise IP-100,2013-07-02 10:10:00,
2013-07-02 06:15:00,59.8,59.0,30.22,ESE,112,2.0,9.0,100,0.00,,,0.23,Rainwise IP-100,2013-07-02 10:15:00,
2013-07-02 06:20:00,59.7,59.0,30.23,ENE,67,8.0,8.0,100,0.00,,,0.23,Rainwise IP-100,2013-07-02 10:20:00,
2013-07-02 06:25:00,59.6,59.0,30.23,ESE,112,3.0,8.0,100,0.00,,,0.24,Rainwise IP-100,2013-07-02 10:25:00,
2013-07-02 06:30:00,59.7,59.0,30.23,NNE,22,4.0,5.0,100,0.06,,,0.24,Rainwise IP-100,2013-07-02 10:30:00,
2013-07-02 06:35:00,59.7,59.0,30.23,ENE,67,2.0,7.0,100,0.06,,,0.24,Rainwise IP-100,2013-07-02 10:35:00,
2013-07-02 06:40:00,59.7,59.0,30.23,ESE,112,4.0,6.0,100,0.00,,,0.24,Rainwise IP-100,2013-07-02 10:40:00,
2013-07-02 06:45:00,59.6,59.0,30.22,ESE,112,4.0,8.0,100,0.00,,,0.24,Rainwise IP-100,2013-07-02 10:45:00,
2013-07-02 06:50:00,59.5,59.0,30.23,ESE,112,2.0,6.0,100,0.00,,,0.24,Rainwise IP-100,2013-07-02 10:50:00,
2013-07-02 06:55:00,59.5,59.0,30.23,ENE,67,3.0,9.0,100,0.00,,,0.24,Rainwise IP-100,2013-07-02 10:55:00,
2013-07-02 07:00:00,59.3,59.0,30.23,SE,135,1.0,7.0,100,0.00,,,0.24,Rainwise IP-100,2013-07-02 11:00:00,
2013-07-02 07:05:00,59.2,59.0,30.24,East,90,1.0,6.0,100,0.00,,,0.24,Rainwise IP-100,2013-07-02 11:05:00,
2013-07-02 07:10:00,59.1,59.0,30.24,ESE,112,2.0,6.0,100,0.00,,,0.24,Rainwise IP-100,2013-07-02 11:10:00,
2013-07-02 07:15:00,58.9,59.0,30.24,ESE,112,2.0,2.0,100,0.00,,,0.24,Rainwise IP-100,2013-07-02 11:15:00,
2013-07-02 07:20:00,58.9,59.0,30.24,ENE,67,3.0,7.0,100,0.00,,,0.24,Rainwise IP-100,2013-07-02 11:20:00,
2013-07-02 07:25:00,58.8,59.0,30.24,SE,135,0.0,8.0,100,0.06,,,0.25,Rainwise IP-100,2013-07-02 11:25:00,
2013-07-02 07:30:00,58.7,59.0,30.24,ESE,112,3.0,8.0,100,0.06,,,0.25,Rainwise IP-100,2013-07-02 11:30:00,
2013-07-02 07:35:00,58.8,59.0,30.24,NNE,22,2.0,7.0,100,0.00,,,0.25,Rainwise IP-100,2013-07-02 11:35:00,
2013-07-02 07:40:00,58.8,59.0,30.24,ESE,112,5.0,5.0,100,0.00,,,0.25,Rainwise IP-100,2013-07-02 11:40:00,
2013-07-02 07:45:00,58.7,59.0,30.24,ENE,67,2.0,0.0,100,0.00,,,0.25,Rainwise IP-100,2013-07-02 11:45:00,
2013-07-02 07:50:00,58.7,59.0,30.25,East,90,4.0,4.0,100,0.00,,,0.25,Rainwise IP-100,2013-07-02 11:50:00,
2013-07-02 07:55:00,58.6,59.0,30.25,SSW,202,0.0,6.0,100,0.00,,,0.25,Rainwise IP-100,2013-07-02 11:55:00,
2013-07-02 08:00:00,58.5,59.0,30.25,ESE,112,3.0,7.0,100,0.00,,,0.25,Rainwise IP-100,2013-07-02 12:00:00,
2013-07-02 08:05:00,58.4,58.0,30.25,ESE,112,0.0,7.0,100,0.00,,,0.25,Rainwise IP-100,2013-07-02 12:05:00,
2013-07-02 08:10:00,58.3,58.0,30.25,NNW,337,2.0,7.0,100,0.00,,,0.25,Rainwise IP-100,2013-07-02 12:10:00,
2013-07-02 08:15:00,58.3,58.0,30.25,East,90,3.0,7.0,100,0.00,,,0.25,Rainwise IP-100,2013-07-02 12:15:00,
2013-07-02 08:20:00,58.3,58.0,30.26,SSE,157,2.0,6.0,100,0.00,,,0.25,Rainwise IP-100,2013-07-02 12:20:00,
2013-07-02 08:25:00,58.2,58.0,30.26,East,90,3.0,6.0,100,0.00,,,0.25,Rainwise IP-100,2013-07-02 12:25:00,
2013-07-02 08:30:00,58.3,58.0,30.26,NNW,337,4.0,6.0,100,0.00,,,0.25,Rainwise IP-100,2013-07-02 12:30:00,
2013-07-02 08:35:00,58.3,58.0,30.26,NNW,337,1.0,5.0,100,0.00,,,0.25,Rainwise IP-100,2013-07-02 12:35:00,
2013-07-02 08:40:00,58.2,58.0,30.26,NNE,22,4.0,4.0,100,0.00,,,0.25,Rainwise IP-100,2013-07-02 12:40:00,
2013-07-02 08:45:00,58.2,58.0,30.26,ESE,112,2.0,7.0,100,0.00,,,0.25,Rainwise IP-100,2013-07-02 12:45:00,
2013-07-02 08:50:00,58.1,58.0,30.26,NNE,22,1.0,4.0,100,0.00,,,0.25,Rainwise IP-100,2013-07-02 12:50:00,
2013-07-02 08:55:00,58.1,58.0,30.26,SE,135,0.0,5.0,100,0.06,,,0.26,Rainwise IP-100,2013-07-02 12:55:00,
2013-07-02 09:00:00,58.1,58.0,30.26,NNE,22,5.0,5.0,100,0.06,,,0.26,Rainwise IP-100,2013-07-02 13:00:00,
2013-07-02 09:05:00,58.1,58.0,30.26,East,90,2.0,5.0,100,0.00,,,0.26,Rainwise IP-100,2013-07-02 13:05:00,
2013-07-02 09:10:00,58.0,58.0,30.26,SSE,157,0.0,5.0,100,0.00,,,0.26,Rainwise IP-100,2013-07-02 13:10:00,
2013-07-02 09:15:00,58.0,58.0,30.26,South,180,3.0,7.0,100,0.00,,,0.26,Rainwise IP-100,2013-07-02 13:15:00,
2013-07-02 09:20:00,58.1,58.0,30.26,ESE,112,2.0,4.0,100,0.00,,,0.26,Rainwise IP-100,2013-07-02 13:20:00,
2013-07-02 09:25:00,58.2,58.0,30.26,NE,45,2.0,5.0,100,0.00,,,0.26,Rainwise IP-100,2013-07-02 13:25:00,
2013-07-02 09:30:00,58.3,58.0,30.26,ENE,67,1.0,7.0,100,0.00,,,0.26,Rainwise IP-100,2013-07-02 13:30:00,
2013-07-02 09:35:00,58.2,58.0,30.25,ENE,67,0.0,7.0,100,0.00,,,0.26,Rainwise IP-100,2013-07-02 13:35:00,
2013-07-02 09:40:00,58.2,58.0,30.26,WNW,292,2.0,8.0,100,0.00,,,0.26,Rainwise IP-100,2013-07-02 13:40:00,
2013-07-02 09:45:00,58.2,58.0,30.26,SSE,157,2.0,6.0,100,0.00,,,0.26,Rainwise IP-100,2013-07-02 13:45:00,
2013-07-02 09:50:00,58.1,58.0,30.26,NNW,337,2.0,6.0,100,0.00,,,0.26,Rainwise IP-100,2013-07-02 13:50:00,
2013-07-02 09:55:00,58.1,58.0,30.26,ESE,112,3.0,7.0,100,0.00,,,0.26,Rainwise IP-100,2013-07-02 13:55:00,
2013-07-02 10:00:00,58.0,58.0,30.26,ESE,112,2.0,5.0,100,0.00,,,0.26,Rainwise IP-100,2013-07-02 14:00:00,
2013-07-02 10:05:00,58.0,58.0,30.27,NE,45,2.0,7.0,100,0.00,,,0.26,Rainwise IP-100,2013-07-02 14:05:00,
2013-07-02 10:10:00,57.9,58.0,30.27,ENE,67,0.0,6.0,100,0.00,,,0.26,Rainwise IP-100,2013-07-02 14:10:00,
2013-07-02 10:15:00,57.9,58.0,30.27,East,90,2.0,7.0,100,0.00,,,0.26,Rainwise IP-100,2013-07-02 14:15:00,
2013-07-02 10:20:00,57.8,57.0,30.26,ESE,112,2.0,6.0,100,0.00,,,0.26,Rainwise IP-100,2013-07-02 14:20:00,
2013-07-02 10:25:00,58.0,58.0,30.27,ESE,112,6.0,6.0,100,0.00,,,0.26,Rainwise IP-100,2013-07-02 14:25:00,
2013-07-02 10:30:00,58.2,58.0,30.27,East,90,3.0,7.0,100,0.00,,,0.26,Rainwise IP-100,2013-07-02 14:30:00,
2013-07-02 10:35:00,58.2,58.0,30.27,SE,135,0.0,9.0,100,0.00,,,0.26,Rainwise IP-100,2013-07-02 14:35:00,
2013-07-02 10:40:00,58.2,58.0,30.26,SSE,157,3.0,4.0,100,0.00,,,0.26,Rainwise IP-100,2013-07-02 14:40:00,
2013-07-02 10:45:00,58.3,58.0,30.26,ESE,112,2.0,7.0,100,0.00,,,0.26,Rainwise IP-100,2013-07-02 14:45:00,
2013-07-02 10:50:00,58.4,58.0,30.27,ESE,112,0.0,8.0,100,0.00,,,0.26,Rainwise IP-100,2013-07-02 14:50:00,
2013-07-02 10:55:00,58.5,59.0,30.26,NNE,22,2.0,7.0,100,0.00,,,0.26,Rainwise IP-100,2013-07-02 14:55:00,
2013-07-02 11:00:00,58.6,59.0,30.26,ESE,112,4.0,7.0,100,0.00,,,0.26,Rainwise IP-100,2013-07-02 15:00:00,
2013-07-02 11:05:00,58.7,59.0,30.27,ESE,112,3.0,6.0,100,0.00,,,0.26,Rainwise IP-100,2013-07-02 15:05:00,
2013-07-02 11:10:00,58.8,59.0,30.26,SSE,157,2.0,5.0,100,0.00,,,0.26,Rainwise IP-100,2013-07-02 15:10:00,
2013-07-02 11:15:00,58.9,59.0,30.27,ESE,112,3.0,5.0,100,0.00,,,0.26,Rainwise IP-100,2013-07-02 15:15:00,
2013-07-02 11:20:00,58.9,59.0,30.27,ENE,67,5.0,5.0,100,0.00,,,0.26,Rainwise IP-100,2013-07-02 15:20:00,
2013-07-02 11:25:00,58.9,59.0,30.27,ESE,112,2.0,8.0,100,0.00,,,0.26,Rainwise IP-100,2013-07-02 15:25:00,
2013-07-02 11:30:00,58.9,59.0,30.27,SSE,157,3.0,6.0,100,0.00,,,0.26,Rainwise IP-100,2013-07-02 15:30:00,
2013-07-02 11:35:00,59.0,59.0,30.27,ESE,112,4.0,5.0,100,0.00,,,0.26,Rainwise IP-100,2013-07-02 15:35:00,
2013-07-02 11:40:00,58.9,59.0,30.27,SSE,157,2.0,7.0,100,0.00,,,0.26,Rainwise IP-100,2013-07-02 15:40:00,
2013-07-02 11:45:00,58.9,59.0,30.27,ESE,112,2.0,9.0,100,0.00,,,0.26,Rainwise IP-100,2013-07-02 15:45:00,
2013-07-02 11:50:00,58.9,59.0,30.27,East,90,3.0,5.0,100,0.00,,,0.26,Rainwise IP-100,2013-07-02 15:50:00,
2013-07-02 11:55:00,58.9,59.0,30.26,SE,135,2.0,7.0,100,0.00,,,0.26,Rainwise IP-100,2013-07-02 15:55:00,
2013-07-02 12:00:00,58.9,59.0,30.27,SE,135,4.0,8.0,100,0.00,,,0.26,Rainwise IP-100,2013-07-02 16:00:00,
2013-07-02 12:05:00,59.0,59.0,30.27,SE,135,4.0,5.0,100,0.00,,,0.26,Rainwise IP-100,2013-07-02 16:05:00,
2013-07-02 12:10:00,59.1,59.0,30.27,SE,135,3.0,6.0,100,0.00,,,0.26,Rainwise IP-100,2013-07-02 16:10:00,
2013-07-02 12:15:00,59.1,59.0,30.26,North,360,2.0,7.0,100,0.00,,,0.26,Rainwise IP-100,2013-07-02 16:15:00,
2013-07-02 12:20:00,59.1,59.0,30.26,ENE,67,3.0,7.0,100,0.00,,,0.26,Rainwise IP-100,2013-07-02 16:20:00,
2013-07-02 12:25:00,59.2,59.0,30.26,SSE,157,1.0,9.0,100,0.00,,,0.26,Rainwise IP-100,2013-07-02 16:25:00,
2013-07-02 12:30:00,59.2,59.0,30.26,NNE,22,3.0,5.0,100,0.00,,,0.26,Rainwise IP-100,2013-07-02 16:30:00,
2013-07-02 12:35:00,59.3,59.0,30.26,NNW,337,2.0,5.0,100,0.00,,,0.26,Rainwise IP-100,2013-07-02 16:35:00,
2013-07-02 12:40:00,59.3,59.0,30.27,SSE,157,2.0,7.0,100,0.00,,,0.26,Rainwise IP-100,2013-07-02 16:40:00,
2013-07-02 12:45:00,59.3,59.0,30.26,NE,45,4.0,7.0,100,0.00,,,0.26,Rainwise IP-100,2013-07-02 16:45:00,
2013-07-02 12:50:00,59.2,59.0,30.26,ESE,112,2.0,5.0,100,0.00,,,0.26,Rainwise IP-100,2013-07-02 16:50:00,
2013-07-02 12:55:00,59.2,59.0,30.26,ESE,112,3.0,8.0,100,0.00,,,0.26,Rainwise IP-100,2013-07-02 16:55:00,
2013-07-02 13:00:00,59.2,59.0,30.26,ESE,112,3.0,6.0,100,0.00,,,0.26,Rainwise IP-100,2013-07-02 17:00:00,
2013-07-02 13:05:00,59.0,59.0,30.27,NNW,337,4.0,8.0,100,0.00,,,0.26,Rainwise IP-100,2013-07-02 17:05:00,
2013-07-02 13:10:00,58.7,59.0,30.27,ENE,67,4.0,6.0,100,0.00,,,0.26,Rainwise IP-100,2013-07-02 17:10:00,
2013-07-02 13:15:00,58.4,58.0,30.26,ENE,67,3.0,8.0,100,0.00,,,0.26,Rainwise IP-100,2013-07-02 17:15:00,
2013-07-02 13:20:00,58.3,58.0,30.27,NE,45,1.0,9.0,100,0.00,,,0.26,Rainwise IP-100,2013-07-02 17:20:00,
2013-07-02 13:25:00,58.1,58.0,30.27,ESE,112,2.0,9.0,100,0.00,,,0.26,Rainwise IP-100,2013-07-02 17:25:00,
2013-07-02 13:30:00,57.9,58.0,30.27,NNE,22,4.0,8.0,100,0.00,,,0.26,Rainwise IP-100,2013-07-02 17:30:00,
2013-07-02 13:35:00,57.9,58.0,30.27,East,90,0.0,8.0,100,0.00,,,0.26,Rainwise IP-100,2013-07-02 17:35:00,
2013-07-02 13:40:00,57.8,57.0,30.27,NNE,22,1.0,9.0,100,0.00,,,0.26,Rainwise IP-100,2013-07-02 17:40:00,
2013-07-02 13:45:00,57.7,57.0,30.27,ESE,112,4.0,6.0,100,0.00,,,0.26,Rainwise IP-100,2013-07-02 17:45:00,
2013-07-02 13:50:00,57.7,57.0,30.27,NNE,22,5.0,8.0,100,0.00,,,0.26,Rainwise IP-100,2013-07-02 17:50:00,
2013-07-02 13:55:00,57.6,57.0,30.27,SE,135,3.0,6.0,100,0.00,,,0.26,Rainwise IP-100,2013-07-02 17:55:00,
2013-07-02 14:00:00,57.7,57.0,30.27,NNE,22,2.0,7.0,100,0.00,,,0.26,Rainwise IP-100,2013-07-02 18:00:00,
2013-07-02 14:05:00,57.7,57.0,30.27,ENE,67,1.0,7.0,100,0.00,,,0.26,Rainwise IP-100,2013-07-02 18:05:00,
2013-07-02 14:10:00,57.7,57.0,30.27,SW,225,2.0,6.0,100,0.00,,,0.26,Rainwise IP-100,2013-07-02 18:10:00,
2013-07-02 14:11:00,57.7,57.0,30.27,NNE,22,2.0,6.0,100,0.00,,,0.26,Rainwise IP-100,2013-07-02 18:11:00,
2013-07-02 14:16:00,57.8,57.0,30.27,East,90,3.0,6.0,100,0.00,,,0.26,Rainwise IP-100,2013-07-02 18:16:00,
2013-07-02 14:21:00,57.7,57.0,30.27,NNE,22,0.0,6.0,100,0.00,,,0.26,Rainwise IP-100,2013-07-02 18:21:00,
2013-07-02 14:26:00,57.7,57.0,30.27,East,90,2.0,5.0,100,0.00,,,0.26,Rainwise IP-100,2013-07-02 18:26:00,
2013-07-02 14:31:00,57.6,57.0,30.27,ESE,112,3.0,6.0,99,0.00,,,0.26,Rainwise IP-100,2013-07-02 18:31:00,
2013-07-02 14:36:00,57.4,57.0,30.27,SE,135,1.0,6.0,99,0.00,,,0.26,Rainwise IP-100,2013-07-02 18:36:00,
2013-07-02 14:41:00,57.2,57.0,30.27,WSW,247,2.0,4.0,99,0.00,,,0.26,Rainwise IP-100,2013-07-02 18:41:00,
2013-07-02 14:46:00,57.1,57.0,30.27,NE,45,1.0,6.0,99,0.00,,,0.26,Rainwise IP-100,2013-07-02 18:46:00,
2013-07-02 14:51:00,57.2,57.0,30.27,ENE,67,2.0,5.0,99,0.00,,,0.26,Rainwise IP-100,2013-07-02 18:51:00,
2013-07-02 14:56:00,57.3,57.0,30.27,ESE,112,2.0,6.0,99,0.00,,,0.26,Rainwise IP-100,2013-07-02 18:56:00,
2013-07-02 15:01:00,57.3,57.0,30.27,SSE,157,0.0,6.0,99,0.00,,,0.26,Rainwise IP-100,2013-07-02 19:01:00,
2013-07-02 15:06:00,57.5,57.0,30.26,East,90,2.0,5.0,98,0.00,,,0.26,Rainwise IP-100,2013-07-02 19:06:00,
2013-07-02 15:11:00,57.5,57.0,30.27,ESE,112,2.0,7.0,98,0.00,,,0.26,Rainwise IP-100,2013-07-02 19:11:00,
2013-07-02 15:16:00,57.5,57.0,30.26,NNW,337,2.0,5.0,98,0.00,,,0.26,Rainwise IP-100,2013-07-02 19:16:00,
2013-07-02 15:21:00,57.5,57.0,30.27,East,90,3.0,6.0,98,0.00,,,0.26,Rainwise IP-100,2013-07-02 19:21:00,
2013-07-02 15:26:00,57.4,57.0,30.26,ESE,112,4.0,6.0,98,0.00,,,0.26,Rainwise IP-100,2013-07-02 19:26:00,
2013-07-02 15:31:00,57.2,56.0,30.27,SSW,202,0.0,6.0,98,0.00,,,0.26,Rainwise IP-100,2013-07-02 19:31:00,
2013-07-02 15:36:00,57.2,56.0,30.26,ESE,112,2.0,5.0,98,0.00,,,0.26,Rainwise IP-100,2013-07-02 19:36:00,
2013-07-02 15:41:00,57.2,56.0,30.26,ENE,67,4.0,8.0,98,0.00,,,0.26,Rainwise IP-100,2013-07-02 19:41:00,
2013-07-02 15:46:00,57.3,56.0,30.26,NE,45,4.0,9.0,98,0.00,,,0.26,Rainwise IP-100,2013-07-02 19:46:00,
2013-07-02 15:51:00,57.4,57.0,30.26,NNE,22,1.0,7.0,98,0.00,,,0.26,Rainwise IP-100,2013-07-02 19:51:00,
2013-07-02 15:56:00,57.5,57.0,30.26,ESE,112,6.0,6.0,98,0.00,,,0.26,Rainwise IP-100,2013-07-02 19:56:00,
2013-07-02 16:01:00,57.4,57.0,30.27,East,90,2.0,6.0,98,0.00,,,0.26,Rainwise IP-100,2013-07-02 20:01:00,
2013-07-02 16:06:00,57.3,56.0,30.27,NNW,337,2.0,5.0,98,0.00,,,0.26,Rainwise IP-100,2013-07-02 20:06:00,
2013-07-02 16:11:00,57.3,56.0,30.26,ENE,67,4.0,6.0,98,0.00,,,0.26,Rainwise IP-100,2013-07-02 20:11:00,
2013-07-02 16:16:00,57.4,57.0,30.26,SSE,157,2.0,4.0,98,0.00,,,0.26,Rainwise IP-100,2013-07-02 20:16:00,
2013-07-02 16:21:00,57.5,57.0,30.26,ESE,112,1.0,4.0,98,0.00,,,0.26,Rainwise IP-100,2013-07-02 20:21:00,
2013-07-02 16:26:00,57.5,57.0,30.26,SE,135,0.0,6.0,98,0.00,,,0.26,Rainwise IP-100,2013-07-02 20:26:00,
2013-07-02 16:31:00,57.5,57.0,30.26,NNE,22,2.0,4.0,98,0.00,,,0.26,Rainwise IP-100,2013-07-02 20:31:00,
2013-07-02 16:36:00,57.6,57.0,30.26,ENE,67,1.0,5.0,98,0.00,,,0.26,Rainwise IP-100,2013-07-02 20:36:00,
2013-07-02 16:41:00,57.6,57.0,30.25,NNW,337,2.0,5.0,98,0.00,,,0.26,Rainwise IP-100,2013-07-02 20:41:00,
2013-07-02 16:46:00,57.5,57.0,30.25,ENE,67,2.0,4.0,98,0.00,,,0.26,Rainwise IP-100,2013-07-02 20:46:00,
2013-07-02 16:51:00,57.6,57.0,30.25,SW,225,2.0,4.0,97,0.00,,,0.26,Rainwise IP-100,2013-07-02 20:51:00,
2013-07-02 16:56:00,57.7,57.0,30.25,East,90,0.0,5.0,97,0.00,,,0.26,Rainwise IP-100,2013-07-02 20:56:00,
2013-07-02 17:01:00,57.8,57.0,30.24,ENE,67,4.0,7.0,97,0.00,,,0.26,Rainwise IP-100,2013-07-02 21:01:00,
2013-07-02 17:06:00,57.9,57.0,30.25,East,90,2.0,5.0,97,0.00,,,0.26,Rainwise IP-100,2013-07-02 21:06:00,
2013-07-02 17:11:00,58.0,57.0,30.25,ESE,112,2.0,4.0,96,0.00,,,0.26,Rainwise IP-100,2013-07-02 21:11:00,
2013-07-02 17:16:00,58.1,57.0,30.25,ENE,67,4.0,4.0,96,0.00,,,0.26,Rainwise IP-100,2013-07-02 21:16:00,
2013-07-02 17:21:00,58.0,57.0,30.25,ESE,112,1.0,7.0,96,0.00,,,0.26,Rainwise IP-100,2013-07-02 21:21:00,
2013-07-02 17:26:00,57.7,56.0,30.25,ENE,67,1.0,4.0,96,0.00,,,0.26,Rainwise IP-100,2013-07-02 21:26:00,
2013-07-02 17:31:00,57.6,57.0,30.26,SSE,157,0.0,4.0,97,0.00,,,0.26,Rainwise IP-100,2013-07-02 21:31:00,
2013-07-02 17:36:00,57.5,57.0,30.26,NNE,22,0.0,6.0,98,0.00,,,0.26,Rainwise IP-100,2013-07-02 21:36:00,
2013-07-02 17:41:00,57.3,56.0,30.25,SSE,157,1.0,7.0,98,0.00,,,0.26,Rainwise IP-100,2013-07-02 21:41:00,
2013-07-02 17:46:00,57.3,57.0,30.25,East,90,0.0,3.0,99,0.00,,,0.26,Rainwise IP-100,2013-07-02 21:46:00,
2013-07-02 17:51:00,57.4,57.0,30.25,ENE,67,0.0,2.0,99,0.06,,,0.27,Rainwise IP-100,2013-07-02 21:51:00,
2013-07-02 17:56:00,57.4,57.0,30.25,NE,45,2.0,4.0,100,0.06,,,0.27,Rainwise IP-100,2013-07-02 21:56:00,
2013-07-02 18:01:00,57.2,57.0,30.26,ESE,112,1.0,2.0,100,0.00,,,0.27,Rainwise IP-100,2013-07-02 22:01:00,
2013-07-02 18:06:00,57.2,57.0,30.25,ENE,67,2.0,4.0,100,0.00,,,0.27,Rainwise IP-100,2013-07-02 22:06:00,
2013-07-02 18:11:00,57.2,57.0,30.25,ESE,112,0.0,5.0,100,0.06,,,0.28,Rainwise IP-100,2013-07-02 22:11:00,
2013-07-02 18:16:00,57.2,57.0,30.25,SE,135,2.0,4.0,100,0.12,,,0.29,Rainwise IP-100,2013-07-02 22:16:00,
2013-07-02 18:21:00,57.1,57.0,30.25,SSE,157,0.0,4.0,100,0.06,,,0.29,Rainwise IP-100,2013-07-02 22:21:00,
2013-07-02 18:26:00,57.0,57.0,30.25,SSE,157,0.0,5.0,100,0.00,,,0.29,Rainwise IP-100,2013-07-02 22:26:00,
2013-07-02 18:31:00,56.8,56.0,30.25,SE,135,3.0,4.0,100,0.00,,,0.29,Rainwise IP-100,2013-07-02 22:31:00,
2013-07-02 18:36:00,56.7,56.0,30.25,NNE,22,1.0,7.0,100,0.00,,,0.29,Rainwise IP-100,2013-07-02 22:36:00,
2013-07-02 18:41:00,56.7,56.0,30.25,North,360,0.0,5.0,100,0.00,,,0.29,Rainwise IP-100,2013-07-02 22:41:00,
2013-07-02 18:46:00,56.7,56.0,30.25,SE,135,1.0,3.0,100,0.00,,,0.29,Rainwise IP-100,2013-07-02 22:46:00,
2013-07-02 18:51:00,56.7,56.0,30.25,ESE,112,2.0,2.0,100,0.00,,,0.29,Rainwise IP-100,2013-07-02 22:51:00,
2013-07-02 18:56:00,56.7,56.0,30.25,ENE,67,2.0,2.0,100,0.00,,,0.29,Rainwise IP-100,2013-07-02 22:56:00,
2013-07-02 19:01:00,56.8,56.0,30.25,ESE,112,0.0,2.0,100,0.00,,,0.29,Rainwise IP-100,2013-07-02 23:01:00,
2013-07-02 19:06:00,56.9,57.0,30.24,ESE,112,0.0,2.0,100,0.00,,,0.29,Rainwise IP-100,2013-07-02 23:06:00,
2013-07-02 19:11:00,56.9,57.0,30.25,ESE,112,1.0,4.0,100,0.00,,,0.29,Rainwise IP-100,2013-07-02 23:11:00,
2013-07-02 19:16:00,56.9,57.0,30.25,ESE,112,1.0,3.0,100,0.00,,,0.29,Rainwise IP-100,2013-07-02 23:16:00,
2013-07-02 19:21:00,56.8,56.0,30.25,SE,135,0.0,3.0,100,0.00,,,0.29,Rainwise IP-100,2013-07-02 23:21:00,
2013-07-02 19:26:00,56.6,56.0,30.25,ESE,112,2.0,5.0,100,0.00,,,0.29,Rainwise IP-100,2013-07-02 23:26:00,
2013-07-02 19:31:00,56.4,56.0,30.25,ESE,112,2.0,5.0,100,0.00,,,0.29,Rainwise IP-100,2013-07-02 23:31:00,
2013-07-02 19:36:00,56.3,56.0,30.25,SE,135,1.0,2.0,100,0.00,,,0.29,Rainwise IP-100,2013-07-02 23:36:00,
2013-07-02 19:41:00,56.3,56.0,30.25,ESE,112,1.0,3.0,100,0.00,,,0.29,Rainwise IP-100,2013-07-02 23:41:00,
2013-07-02 19:46:00,56.3,56.0,30.24,ESE,112,2.0,3.0,100,0.00,,,0.29,Rainwise IP-100,2013-07-02 23:46:00,
2013-07-02 19:51:00,56.2,56.0,30.25,ENE,67,0.0,3.0,100,0.00,,,0.29,Rainwise IP-100,2013-07-02 23:51:00,
2013-07-02 19:56:00,56.3,56.0,30.26,ESE,112,0.0,2.0,100,0.00,,,0.29,Rainwise IP-100,2013-07-02 23:56:00,
2013-07-02 20:01:00,56.3,56.0,30.25,SSE,157,0.0,2.0,100,0.00,,,0.29,Rainwise IP-100,2013-07-03 00:01:00,
2013-07-02 20:06:00,56.3,56.0,30.25,East,90,0.0,1.0,100,0.00,,,0.29,Rainwise IP-100,2013-07-03 00:06:00,
2013-07-02 20:11:00,56.3,56.0,30.25,WSW,247,0.0,1.0,100,0.00,,,0.29,Rainwise IP-100,2013-07-03 00:11:00,
2013-07-02 20:16:00,56.3,56.0,30.25,ENE,67,1.0,0.0,100,0.00,,,0.29,Rainwise IP-100,2013-07-03 00:16:00,
2013-07-02 20:21:00,56.3,56.0,30.25,ENE,67,0.0,1.0,100,0.00,,,0.29,Rainwise IP-100,2013-07-03 00:21:00,
2013-07-02 20:26:00,56.3,56.0,30.26,East,90,0.0,0.0,100,0.00,,,0.29,Rainwise IP-100,2013-07-03 00:26:00,
2013-07-02 20:31:00,56.3,56.0,30.25,SE,135,0.0,1.0,100,0.00,,,0.29,Rainwise IP-100,2013-07-03 00:31:00,
2013-07-02 20:32:00,56.3,56.0,30.25,ESE,112,0.0,1.0,100,0.00,,,0.29,Rainwise IP-100,2013-07-03 00:32:00,
2013-07-02 20:37:00,56.2,56.0,30.25,SSE,157,1.0,2.0,100,0.00,,,0.29,Rainwise IP-100,2013-07-03 00:37:00,
2013-07-02 20:42:00,56.2,56.0,30.25,NE,45,0.0,1.0,100,0.00,,,0.29,Rainwise IP-100,2013-07-03 00:42:00,
2013-07-02 20:47:00,56.2,56.0,30.25,NE,45,0.0,0.0,100,0.00,,,0.29,Rainwise IP-100,2013-07-03 00:47:00,
2013-07-02 20:52:00,56.2,56.0,30.26,NE,45,0.0,0.0,100,0.00,,,0.29,Rainwise IP-100,2013-07-03 00:52:00,
2013-07-02 20:57:00,56.2,56.0,30.26,NNE,22,0.0,0.0,100,0.00,,,0.29,Rainwise IP-100,2013-07-03 00:57:00,
2013-07-02 20:59:00,56.2,56.0,30.26,NNW,337,1.0,1.0,100,0.00,,,0.29,Rainwise IP-100,2013-07-03 00:59:00,
2013-07-02 21:04:00,56.1,56.0,30.26,NNE,22,0.0,2.0,100,0.00,,,0.29,Rainwise IP-100,2013-07-03 01:04:00,
2013-07-02 21:08:00,56.1,56.0,30.27,NNE,22,0.0,0.0,100,0.00,,,0.29,Rainwise IP-100,2013-07-03 01:08:00,
2013-07-02 21:13:00,56.1,56.0,30.27,NNE,22,0.0,0.0,100,0.00,,,0.29,Rainwise IP-100,2013-07-03 01:13:00,
2013-07-02 21:18:00,56.1,56.0,30.27,NNE,22,0.0,0.0,100,0.00,,,0.29,Rainwise IP-100,2013-07-03 01:18:00,
2013-07-02 21:23:00,56.2,56.0,30.28,NNE,22,0.0,0.0,100,0.00,,,0.29,Rainwise IP-100,2013-07-03 01:23:00,
2013-07-02 21:28:00,56.2,56.0,30.27,WNW,292,1.0,3.0,100,0.00,,,0.29,Rainwise IP-100,2013-07-03 01:28:00,
2013-07-02 21:33:00,56.3,56.0,30.27,WNW,292,0.0,1.0,100,0.00,,,0.29,Rainwise IP-100,2013-07-03 01:33:00,
2013-07-02 21:38:00,56.3,56.0,30.27,NNE,22,0.0,2.0,100,0.00,,,0.29,Rainwise IP-100,2013-07-03 01:38:00,
2013-07-02 21:43:00,56.4,56.0,30.27,NNE,22,0.0,2.0,100,0.00,,,0.29,Rainwise IP-100,2013-07-03 01:43:00,
2013-07-02 21:46:00,56.4,56.0,30.27,North,360,0.0,1.0,100,0.00,,,0.29,Rainwise IP-100,2013-07-03 01:46:00,
2013-07-02 21:49:00,56.4,56.0,30.27,North,360,1.0,1.0,100,0.00,,,0.29,Rainwise IP-100,2013-07-03 01:49:00,
2013-07-02 21:54:00,56.4,56.0,30.27,East,90,0.0,1.0,100,0.00,,,0.29,Rainwise IP-100,2013-07-03 01:54:00,
2013-07-02 21:59:00,56.5,56.0,30.27,SSW,202,0.0,2.0,100,0.00,,,0.29,Rainwise IP-100,2013-07-03 01:59:00,
2013-07-02 22:04:00,56.5,56.0,30.27,SSW,202,0.0,0.0,100,0.00,,,0.29,Rainwise IP-100,2013-07-03 02:04:00,
2013-07-02 22:09:00,56.6,56.0,30.27,ESE,112,0.0,1.0,100,0.00,,,0.29,Rainwise IP-100,2013-07-03 02:09:00,
2013-07-02 22:14:00,56.6,56.0,30.26,ESE,112,0.0,0.0,100,0.00,,,0.29,Rainwise IP-100,2013-07-03 02:14:00,
2013-07-02 22:19:00,56.6,56.0,30.26,NNE,22,0.0,1.0,100,0.00,,,0.29,Rainwise IP-100,2013-07-03 02:19:00,
2013-07-02 22:24:00,56.6,56.0,30.25,East,90,0.0,1.0,100,0.00,,,0.29,Rainwise IP-100,2013-07-03 02:24:00,
2013-07-02 22:29:00,56.5,56.0,30.25,ENE,67,1.0,3.0,100,0.00,,,0.29,Rainwise IP-100,2013-07-03 02:29:00,
2013-07-02 22:34:00,56.4,56.0,30.25,ESE,112,0.0,3.0,100,0.00,,,0.29,Rainwise IP-100,2013-07-03 02:34:00,
2013-07-02 22:39:00,56.3,56.0,30.25,ESE,112,1.0,2.0,100,0.00,,,0.29,Rainwise IP-100,2013-07-03 02:39:00,
2013-07-02 22:44:00,56.3,56.0,30.24,SE,135,0.0,3.0,100,0.00,,,0.29,Rainwise IP-100,2013-07-03 02:44:00,
2013-07-02 22:45:00,56.3,56.0,30.24,East,90,0.0,2.0,100,0.00,,,0.29,Rainwise IP-100,2013-07-03 02:45:00,
2013-07-02 22:50:00,56.2,56.0,30.24,East,90,0.0,2.0,100,0.00,,,0.29,Rainwise IP-100,2013-07-03 02:50:00,
2013-07-02 22:55:00,56.0,56.0,30.24,ESE,112,0.0,1.0,100,0.00,,,0.29,Rainwise IP-100,2013-07-03 02:55:00,
2013-07-02 23:00:00,55.9,56.0,30.25,NNW,337,0.0,0.0,100,0.00,,,0.29,Rainwise IP-100,2013-07-03 03:00:00,
2013-07-02 23:05:00,55.9,56.0,30.24,NNW,337,0.0,0.0,100,0.00,,,0.29,Rainwise IP-100,2013-07-03 03:05:00,
2013-07-02 23:10:00,55.9,56.0,30.25,ESE,112,0.0,0.0,100,0.00,,,0.29,Rainwise IP-100,2013-07-03 03:10:00,
2013-07-02 23:11:00,55.9,56.0,30.25,ESE,112,1.0,0.0,100,0.00,,,0.29,Rainwise IP-100,2013-07-03 03:11:00,
2013-07-02 23:16:00,55.8,56.0,30.24,ESE,112,0.0,1.0,100,0.00,,,0.29,Rainwise IP-100,2013-07-03 03:16:00,
2013-07-02 23:21:00,55.7,56.0,30.24,East,90,0.0,1.0,100,0.00,,,0.29,Rainwise IP-100,2013-07-03 03:21:00,
2013-07-02 23:26:00,55.7,56.0,30.24,East,90,0.0,0.0,100,0.00,,,0.29,Rainwise IP-100,2013-07-03 03:26:00,
2013-07-02 23:31:00,55.7,56.0,30.24,East,90,0.0,0.0,100,0.00,,,0.29,Rainwise IP-100,2013-07-03 03:31:00,
2013-07-02 23:36:00,55.7,56.0,30.24,East,90,0.0,0.0,100,0.00,,,0.29,Rainwise IP-100,2013-07-03 03:36:00,
2013-07-02 23:41:00,55.7,56.0,30.24,East,90,0.0,0.0,100,0.00,,,0.29,Rainwise IP-100,2013-07-03 03:41:00,
2013-07-02 23:46:00,55.8,56.0,30.24,East,90,0.0,0.0,100,0.00,,,0.29,Rainwise IP-100,2013-07-03 03:46:00,
2013-07-02 23:48:00,55.8,56.0,30.24,East,90,0.0,0.0,100,0.00,,,0.29,Rainwise IP-100,2013-07-03 03:48:00,
2013-07-02 23:53:00,55.8,56.0,30.24,East,90,0.0,0.0,100,0.00,,,0.29,Rainwise IP-100,2013-07-03 03:53:00,
2013-07-02 23:58:00,55.7,56.0,30.23,NE,45,0.0,1.0,100,0.00,,,0.29,Rainwise IP-100,2013-07-03 03:58:00,
2013-07-02 23:59:00,55.8,56.0,30.24,NE,45,0.0,1.0,100,0.00,,,0.29,Rainwise IP-100,2013-07-03 03:59:00,